Orbital Elements at Epoch 2459200.5 (2020-Dec-17.0) TDB
Reference: JPL 19 (heliocentric ecliptic J2000)
Element | Value | Uncertainty (1-sigma) | Units |
e | .06830974278759713 | 5.6921e-08 | |
a | 3.007375974707866 | 3.1569e-08 | au |
q | 2.801942895409972 | 1.877e-07 | au |
i | 11.40837767970521 | 4.5003e-06 | deg |
node | 109.1485306790149 | 3.3878e-05 | deg |
peri | 316.4936322964271 | 5.8955e-05 | deg |
M | 316.2733952252901 | 4.8051e-05 | deg |
tp | 2459431.878644297993 (2021-Aug-05.37864430) | 0.00025466 | TDB |
period | 1904.934361504631 5.22 | 2.9995e-05 8.212e-08 | d yr |
n | .1889828895288815 | 2.9757e-09 | deg/d |
Q | 3.21280905400576 | 3.3726e-08 | au |
|
| | Orbit Determination Parameters
Additional Information
|